sat.trackr.live / text

‹ back to catalog

COSMOS 2615

NORAD 68826 · 2026-090A

PAYLOAD ACTIVE UNKNOWN

§ Identity

Operator
Country
CIS
Launch date
2026-04-23
Launch site
PLMSC
Launch vehicle
Mass (kg)
RCS (m²)

External: N2YO · Heavens-Above · Gunter

§ Orbital elements

Epoch: 2026-05-25T04:26:19.102848Z

Period
91.07 min
Inclination
96.6467°
Eccentricity
0.0018342
Mean motion
15.81241864 rev/d
Perigee alt
314.6 km
Apogee alt
339.2 km
Semi-major
6,705.1 km
B*
1.8445e-4
RAAN
63.6855°
Arg perigee
120.6158°
Mean anomaly
239.6924°
Rev number
503

§ Raw data

COSMOS 26151 68826U 26090A   26145.18494332  .00036479  00000+0  18445-3 0  99922 68826  96.6467  63.6855 0018342 120.6158 239.6924 15.81241864  5037

JSON: /api/v1/satellites/68826 · /tle

For live sub-satellite position, see the globe view (requires WebGL).

§ Visibility from observer

Set your observer location to see the next 7 days of passes ≥ 10°. The values pass through the URL so the page stays shareable.

No JS? Fill the form by hand. The geolocation button needs JavaScript.